Regional Weather Roundup
Issued by NWS Cleveland, OH

Home | Current Version | Previous Version | Graphics & Text | Print | Product List | Glossary On
Versions: 1 2 3 4 5 6 7 8 9 10 11 12 13 14 15 16 17 18 19 20 21 22 23 24 25 26 27 28 29 30 31 32 33 34 35 36 37 38 39 40 41 42 43 44 45 46 47 48 49 50
000
ASUS41 KCLE 241710
RWRCLE
OHIO REGIONAL WEATHER ROUNDUP
NATIONAL WEATHER SERVICE WILMINGTON, OH
1200 PM EST TUE JAN 24 2017

NOTE: "FAIR" INDICATES FEW OR NO CLOUDS BELOW 12,000 FEET WITH NO
SIGNIFICANT WEATHER AND/OR OBSTRUCTIONS TO VISIBILITY.

OHZ001>008-015>018-024>027-034-035-043-044-241800-
   NORTHWEST OHIO

CITY           SKY/WX    TMP DP  RH WIND       PRES   REMARKS
DEFIANCE       CLOUDY    40  36  86 NW14      29.82F
FINDLAY        CLOUDY    42  38  85 W14       29.79F
TOLEDO EXPRESS CLOUDY    41  39  93 W12G22    29.79F
TOLEDO EXEC    CLOUDY    42  40  92 NW10      29.79F
LIMA           CLOUDY    40  39  97 NW15      29.81F
$$

OHZ009>014-019>023-028>033-038-089-241800-
   NORTHEAST OHIO

CITY           SKY/WX    TMP DP  RH WIND       PRES   REMARKS
CLE-HOPKINS    CLOUDY    38  33  82 W9        29.79R
CLE-LAKEFRONT  CLOUDY    36  34  92 W9        29.76F FOG
CUY CO. ARPT   CLOUDY    36  34  93 NW10      29.75F FOG
LORAIN-ELYRIA  CLOUDY    36  33  89 W6        29.78R FOG
ASHTABULA      CLOUDY    35  32  88 NW6       29.72F
AKRON-CANTON   LGT RAIN  38  34  85 NW12      29.74R FOG
WOOSTER        CLOUDY    37  35  92 NW8       29.75F
MANSFIELD      CLOUDY    38  38 100 W8        29.76F
YOUNGSTOWN     LGT RAIN  35  32  88 NW14      29.70F WCI  26
$$

OHZ042-051>053-060>062-070>072-077>081-241800-
  SOUTHWEST OHIO

CITY           SKY/WX    TMP DP  RH WIND       PRES   REMARKS
CINC-COVINGTON CLOUDY    43  38  82 NW10      29.86F
CINC-LUNKEN    CLOUDY    43  40  89 W7        29.88F
HAMILTON       CLOUDY    43  40  89 NW10      29.87F
DAYTON         CLOUDY    40  37  89 NW13      29.84F
WRIGHT-PAT AFB CLOUDY    41  41  99 NW10      29.84S
DAYTON GENERAL CLOUDY    41  38  89 NW9       29.83F
WILMINGTON     CLOUDY    40  39  97 NW14      29.83S
$$

OHZ036-037-039>041-045>050-054>059-063>069-073>076-082>088-241800-
  CENTRAL AND SOUTHEAST OHIO

CITY           SKY/WX    TMP DP  RH WIND       PRES   REMARKS
COLUMBUS       CLOUDY    43  39  86 NW16      29.80S
OSU AIRPORT    CLOUDY    42  41  96 NW9       29.80S
BOLTON FIELD   CLOUDY    43  41  93 W7        29.81S
RICKENBACK AFB   N/A     42  41  97 NW10G17   29.80F
NEWARK         CLOUDY    42  38  85 W9        29.78F
MARION         CLOUDY    41  38  89 NW10      29.79S
LANCASTER      CLOUDY    45  40  82 NW6       29.80F
ZANESVILLE     CLOUDY    42  38  85 W12       29.77S
NEW PHILLY     CLOUDY    40  37  89 NW10      29.76R
$$



USA.gov is the U.S. government's official web portal to all federal, state and local government web resources and services.